[[{"header":{"parameterUnit":"m.s-1","parameterCategory":1,"la1":30.2991,"la2":30.254,"lo1":-89.0895,"lo2":-89.0444,"dy":0.0017,"dx":0.0017,"nx":28,"ny":28,"refTime":"2024-03-26T09:00:00:Z","depth":0,"parameterNumber":2,"parameterNumberName":"U-component_of_WINDS"},"data":[0,0,0,0,0,0,0,0,0,0,0,0,0,0,0,0,0,0,0,0,0,0,0,0,0,0,0,0,0,0,0,0,0,0,0,0,0,0,0,0,0,0,0,0,0,0,0,0,0,0,0,0,0,0,0,0,0,0,1.8845,1.8845,0,1.8842,1.8842,1.8842,1.8793,1.8792,1.8791,1.8789,1.8786,1.8787,1.8788,0,0,0,0,0,0,0,0,0,0,0,0,0,1.8809,1.881,1.8845,1.8845,1.8845,1.8842,1.8842,1.8842,1.8793,1.8792,1.879,1.8789,1.8786,1.8787,1.8788,0,0,0,0,0,0,0,0,0,0,0,0,0,1.8817,1.881,1.8845,1.882,1.8818,1.8842,1.8842,1.8842,1.8794,1.8792,1.879,1.8788,1.8785,1.8787,1.8788,1.8835,0,0,1.8793,1.8794,0,0,0,0,0,0,0,0,1.8817,1.8818,1.8824,1.8822,1.8819,1.8816,1.8828,1.884,1.8794,1.8803,1.8789,1.8787,1.8797,1.8798,1.8801,1.8835,1.8835,1.8793,1.8794,1.8795,1.8795,0,0,0,0,0,0,0,1.8816,1.8818,1.8844,1.8824,1.8821,1.8809,1.8809,1.883,1.8811,1.8802,1.8798,1.8799,1.8796,1.88,1.8801,1.8835,1.8793,1.8795,1.8796,1.8796,1.8908,1.891,0,0,0,0,0,0,1.8819,1.8818,1.8844,1.8843,1.8813,1.8812,1.8811,1.8819,1.881,1.8807,1.88,1.8796,1.8798,1.8799,1.8801,1.8856,1.8795,1.8796,1.8797,1.8906,1.8909,1.8911,0,0,0,0,0,0,1.8818,1.8822,1.8844,1.883,1.8832,1.8814,1.8824,1.882,1.8824,1.8809,1.8805,1.8808,1.8797,1.8798,1.8827,1.8855,1.8797,1.8799,1.8904,1.8907,1.891,1.8966,0,0,0,0,0,0,1.8818,1.8822,1.8839,1.8831,1.8833,1.8871,1.8826,1.8821,1.8827,1.8822,1.8815,1.8812,1.8795,1.8825,1.8829,1.8856,1.88,1.8901,1.8905,1.8909,1.8962,1.8971,1.8978,0,0,0,0,0,1.8816,1.8855,1.884,1.8844,1.8854,1.8872,1.8873,1.8853,1.8829,1.8847,1.8837,1.8813,1.8851,1.8829,1.8832,1.886,1.89,1.8904,1.8909,1.8958,1.8969,1.8978,0,0,0,0,0,0,1.8866,1.8853,1.8837,1.8874,1.8875,1.8864,1.8885,1.8865,1.8873,1.8868,1.8842,1.8841,1.8874,1.887,1.8845,1.8906,1.8871,1.8877,1.8907,1.8918,1.8926,1.8926,1.8801,0,0,0,0,0,1.8882,1.8898,1.8885,1.8919,1.892,1.8903,1.891,1.8895,1.8894,1.8894,1.8887,1.8888,1.89,1.8909,1.8919,1.8961,1.8959,1.8982,1.8991,1.8997,1.9002,1.9025,1.9035,1.8926,1.8926,1.8926,0,0,1.8914,1.8908,1.892,1.8929,1.8928,1.8945,1.8903,1.8923,1.8936,1.8897,1.8924,1.8919,1.8918,1.8954,1.897,1.8952,1.9032,1.9003,1.9009,1.901,1.9031,1.9041,1.905,1.8929,1.8928,1.8928,0,0,1.898,1.8978,1.9006,1.9006,1.9005,1.8994,1.9001,1.8993,1.8989,1.9016,1.8987,1.9002,1.9024,1.9025,1.9028,1.9097,1.9074,1.9101,1.9144,1.9167,1.9175,1.9183,1.9208,1.9217,1.9106,1.9106,1.9106,0,1.902,1.9044,1.9023,1.9045,1.905,1.9017,1.9045,1.9046,1.9049,1.9053,1.9033,1.9061,1.9058,1.9094,1.9111,1.9114,1.9122,1.9101,1.9176,1.9183,1.919,1.9213,1.9223,1.9109,1.9109,1.9109,1.9108,0,1.9093,1.9111,1.9134,1.9138,1.9146,1.9171,1.9153,1.9164,1.9148,1.9139,1.9168,1.9163,1.9173,1.918,1.9165,1.9214,1.9203,1.918,1.9145,1.9204,1.9226,1.9234,1.9114,1.9113,1.9112,1.9111,0,0,1.919,1.9183,1.9192,1.9194,1.9191,1.9204,1.9229,1.9238,1.9248,1.9251,1.9271,1.9291,1.927,1.9274,1.9258,1.9278,1.9334,1.9252,1.9252,1.9268,1.9389,1.9406,1.9417,1.9319,1.9321,1.9322,1.9389,0,1.9255,1.9295,1.9277,1.932,1.9337,1.9306,1.9327,1.9328,1.9321,1.9334,1.9325,1.934,1.9311,1.9313,1.9331,1.9323,1.9358,1.9318,1.9337,1.9338,1.9338,1.9428,1.9446,1.951,1.9397,1.9399,1.94,0,1.9335,1.9342,1.9387,1.9383,1.9389,1.9408,1.9416,1.9429,1.943,1.9423,1.9428,1.9409,1.9432,1.9398,1.943,1.9404,1.9411,1.9408,1.941,1.9411,1.9372,1.9431,1.9529,1.9539,1.9413,1.9412,1.9411,0,1.9401,1.9423,1.9452,1.9455,1.945,1.9465,1.9464,1.9462,1.947,1.9477,1.9482,1.9492,1.9497,1.9505,1.9489,1.9465,1.9524,1.9488,1.9519,1.952,1.9533,1.9532,1.9633,1.9538,1.9537,1.9537,1.9537,0,1.9475,1.9504,1.9482,1.95,1.9532,1.9511,1.9543,1.9538,1.9538,1.9555,1.953,1.9546,1.9524,1.9538,1.9526,1.9555,1.9558,1.9553,1.9549,1.9555,1.9556,1.9559,1.9554,1.954,1.9539,1.9539,1.9538,0,1.9554,1.9541,1.9571,1.9565,1.9564,1.9588,1.9583,1.9599,1.9591,1.9613,1.9617,1.9603,1.9619,1.9604,1.9619,1.961,1.965,1.964,1.965,1.9647,1.9679,1.9676,1.9786,1.9799,1.9695,1.9696,1.9697,0,1.9602,1.9623,1.962,1.963,1.963,1.9646,1.9654,1.9635,1.9645,1.9648,1.9665,1.9678,1.9688,1.9715,1.9707,1.9718,1.9708,1.9746,1.971,1.9715,1.9709,1.9708,1.971,1.9753,1.9754,1.9755,1.9756,0,1.9688,1.9681,1.9693,1.9704,1.9714,1.9722,1.9727,1.9737,1.9717,1.9729,1.9745,1.9753,1.9769,1.9783,1.9793,1.9791,1.9771,1.9768,1.9776,1.9782,1.9787,1.9785,1.9669,1.9765,1.9764,1.9764,1.9763,1.9763,1.9753,1.9771,1.9772,1.9787,1.9789,1.9795,1.9811,1.9805,1.9818,1.983,1.9818,1.9838,1.9839,1.985,1.9851,1.9867,1.9851,1.9862,1.9865,1.9868,1.9873,1.9785,1.9868,1.9868,1.9868,1.9867,1.9867,0,1.9838,1.9838,1.9852,1.9861,1.9873,1.9853,1.9858,1.987,1.9888,1.9891,1.9902,1.9921,1.9935,1.9928,1.9941,1.9955,1.9946,1.9958,1.9957,1.9957,1.9886,1.9878,1.9966,1.9966,1.9966,1.9966,1.9966,1.9966,1.9884,1.9913,1.9907,1.9938,1.9937,1.9957,1.9962,1.9967,1.997,1.9993,2.0004,2.0,1.9999,2.0012,2.0024,2.0022,2.0027,2.0044,2.0038,1.9972,1.9962,1.9953,1.9945,2.0045,2.0045,2.0108,2.0108,2.0109]},{"header":{"parameterUnit":"m.s-1","parameterCategory":1,"la1":30.2991,"la2":30.254,"lo1":-89.0895,"lo2":-89.0444,"dy":0.0017,"dx":0.0017,"nx":28,"ny":28,"refTime":"2024-03-26T09:00:00:Z","depth":0,"parameterNumber":3,"parameterNumberName":"V-component_of_WINDS"},"data":[0,0,0,0,0,0,0,0,0,0,0,0,0,0,0,0,0,0,0,0,0,0,0,0,0,0,0,0,0,0,0,0,0,0,0,0,0,0,0,0,0,0,0,0,0,0,0,0,0,0,0,0,0,0,0,0,0,0,-4.7351,-4.7353,0,-4.7491,-4.7492,-4.7494,-4.7455,-4.7452,-4.745,-4.7447,-4.7588,-4.7595,-4.7601,0,0,0,0,0,0,0,0,0,0,0,0,0,-4.7051,-4.7056,-4.7351,-4.7353,-4.7355,-4.7491,-4.7492,-4.7494,-4.7456,-4.7452,-4.7449,-4.7446,-4.7586,-4.7594,-4.7602,0,0,0,0,0,0,0,0,0,0,0,0,0,-4.7185,-4.7058,-4.7351,-4.7352,-4.7353,-4.749,-4.7493,-4.7495,-4.7456,-4.7452,-4.7448,-4.7444,-4.7584,-4.7593,-4.7603,-4.7747,0,0,-4.7632,-4.7636,0,0,0,0,0,0,0,0,-4.7177,-4.7196,-4.735,-4.7352,-4.7354,-4.7451,-4.7438,-4.7579,-4.7457,-4.7417,-4.7447,-4.7442,-4.7546,-4.7559,-4.7594,-4.7753,-4.7759,-4.7633,-4.7639,-4.7643,-4.7646,0,0,0,0,0,0,0,-4.7168,-4.719,-4.7406,-4.7352,-4.7355,-4.7345,-4.7359,-4.7465,-4.7504,-4.742,-4.7418,-4.7435,-4.7546,-4.7585,-4.7597,-4.7762,-4.7633,-4.7641,-4.7647,-4.7651,-4.8048,-4.8052,0,0,0,0,0,0,-4.7157,-4.7182,-4.7402,-4.741,-4.7253,-4.7354,-4.737,-4.7424,-4.7502,-4.751,-4.7438,-4.7433,-4.7571,-4.7586,-4.7602,-4.7777,-4.7643,-4.7652,-4.7657,-4.8043,-4.8049,-4.8054,0,0,0,0,0,0,-4.7151,-4.7177,-4.7396,-4.7296,-4.7323,-4.7364,-4.7425,-4.7429,-4.7468,-4.7516,-4.7523,-4.7471,-4.7568,-4.7588,-4.7712,-4.7781,-4.7656,-4.7665,-4.8037,-4.8045,-4.8051,-4.8128,0,0,0,0,0,0,-4.7143,-4.7175,-4.7231,-4.7297,-4.7328,-4.7504,-4.7429,-4.7435,-4.7485,-4.7478,-4.7548,-4.7556,-4.7566,-4.7697,-4.7721,-4.7792,-4.7672,-4.8031,-4.804,-4.8049,-4.8119,-4.8137,-4.8152,0,0,0,0,0,-4.7132,-4.7246,-4.7234,-4.726,-4.7398,-4.7508,-4.7526,-4.7536,-4.749,-4.7546,-4.7578,-4.7553,-4.777,-4.771,-4.7737,-4.7812,-4.8027,-4.8038,-4.8048,-4.8112,-4.8133,-4.8151,0,0,0,0,0,0,-4.7186,-4.7255,-4.7242,-4.7381,-4.7439,-4.7501,-4.7572,-4.7558,-4.763,-4.7621,-4.763,-4.7646,-4.7772,-4.7804,-4.7737,-4.7956,-4.7892,-4.7908,-4.7931,-4.7952,-4.7968,-4.7958,-4.768,0,0,0,0,0,-4.7214,-4.7297,-4.7353,-4.747,-4.75,-4.7531,-4.7579,-4.7582,-4.7643,-4.7667,-4.7707,-4.7766,-4.7848,-4.7901,-4.7979,-4.8123,-4.8139,-4.8188,-4.8204,-4.8217,-4.8232,-4.8312,-4.8335,-4.8089,-4.8089,-4.8089,0,0,-4.7273,-4.7321,-4.7373,-4.7482,-4.7528,-4.7614,-4.7552,-4.7646,-4.771,-4.7681,-4.78,-4.7832,-4.7899,-4.8034,-4.8095,-4.8064,-4.8303,-4.8231,-4.8241,-4.8249,-4.8326,-4.8349,-4.837,-4.8096,-4.8095,-4.8094,0,0,-4.7425,-4.7469,-4.7572,-4.7619,-4.7689,-4.7709,-4.7734,-4.7799,-4.7819,-4.7939,-4.7919,-4.7996,-4.8135,-4.8184,-4.8227,-4.8399,-4.838,-4.8423,-4.8509,-4.8587,-4.8606,-4.8623,-4.8686,-4.8708,-4.8437,-4.8438,-4.8438,0,-4.7489,-4.7619,-4.7627,-4.7723,-4.7773,-4.775,-4.7855,-4.79,-4.7992,-4.8026,-4.799,-4.8166,-4.8209,-4.8356,-4.8398,-4.8433,-4.8462,-4.8416,-4.8603,-4.862,-4.8636,-4.8696,-4.8719,-4.8443,-4.8442,-4.8441,-4.8441,0,-4.7695,-4.7785,-4.786,-4.795,-4.8008,-4.8108,-4.8131,-4.8189,-4.8186,-4.821,-4.8333,-4.8384,-4.8473,-4.8507,-4.8505,-4.8654,-4.8633,-4.86,-4.8535,-4.8665,-4.8721,-4.8744,-4.845,-4.8448,-4.8446,-4.8445,0,0,-4.7885,-4.7979,-4.8006,-4.8048,-4.8123,-4.8193,-4.8292,-4.8379,-4.8429,-4.8492,-4.8576,-4.8695,-4.8666,-4.8715,-4.8718,-4.8787,-4.8921,-4.8745,-4.8747,-4.8777,-4.909,-4.9115,-4.9142,-4.8908,-4.8912,-4.8916,-4.9084,0,-4.8044,-4.822,-4.8231,-4.839,-4.8474,-4.8454,-4.8541,-4.8597,-4.8622,-4.8697,-4.8724,-4.8809,-4.8762,-4.8792,-4.8859,-4.889,-4.8984,-4.8878,-4.8987,-4.8991,-4.8973,-4.9171,-4.9198,-4.9355,-4.9106,-4.911,-4.9113,0,-4.8254,-4.8325,-4.8493,-4.8558,-4.8594,-4.8672,-4.8753,-4.8824,-4.8888,-4.8901,-4.8956,-4.8951,-4.9053,-4.8984,-4.9125,-4.9053,-4.9098,-4.912,-4.9126,-4.9138,-4.9061,-4.9189,-4.9405,-4.9429,-4.9147,-4.9144,-4.9142,0,-4.8378,-4.8516,-4.8634,-4.867,-4.8748,-4.8803,-4.8838,-4.8897,-4.8949,-4.902,-4.9054,-4.9135,-4.918,-4.9243,-4.9259,-4.9207,-4.9401,-4.9333,-4.9415,-4.9415,-4.9458,-4.9455,-4.9685,-4.9485,-4.9484,-4.9484,-4.9483,0,-4.8556,-4.8659,-4.8691,-4.8764,-4.888,-4.8891,-4.9005,-4.9037,-4.909,-4.9169,-4.9156,-4.923,-4.9247,-4.9324,-4.9337,-4.9453,-4.9473,-4.9487,-4.949,-4.9489,-4.9488,-4.952,-4.951,-4.949,-4.9489,-4.9488,-4.9486,0,-4.8714,-4.8739,-4.8867,-4.8931,-4.895,-4.9033,-4.9087,-4.9158,-4.9181,-4.9281,-4.9305,-4.9342,-4.9433,-4.9456,-4.9563,-4.9572,-4.971,-4.9701,-4.9689,-4.9689,-4.9771,-4.9764,-5.0031,-5.0067,-4.9841,-4.9843,-4.9845,0,-4.8826,-4.8906,-4.8979,-4.9031,-4.9069,-4.9153,-4.9207,-4.9221,-4.9277,-4.9355,-4.9416,-4.9506,-4.9578,-4.9724,-4.9761,-4.9844,-4.9838,-4.9926,-4.985,-4.9848,-4.9841,-4.9837,-4.9845,-4.994,-4.9943,-4.9945,-4.9946,0,-4.9024,-4.9033,-4.911,-4.9193,-4.9257,-4.9323,-4.9385,-4.9429,-4.9451,-4.9515,-4.9608,-4.9665,-4.9776,-4.9865,-4.9948,-4.9984,-4.997,-4.997,-4.9994,-4.9995,-4.9985,-4.9993,-4.973,-4.9964,-4.9962,-4.9961,-4.996,-4.9959,-4.9164,-4.9234,-4.9297,-4.9384,-4.9433,-4.9492,-4.9562,-4.9595,-4.9673,-4.9765,-4.9768,-4.987,-4.9931,-5.0042,-5.0083,-5.0163,-5.0136,-5.017,-5.0179,-5.0188,-5.0196,-4.9971,-5.0178,-5.0177,-5.0177,-5.0177,-5.0176,0,-4.9362,-4.9402,-4.9482,-4.9571,-4.9639,-4.962,-4.9688,-4.9747,-4.9837,-4.9896,-4.9968,-5.0076,-5.0163,-5.0206,-5.0292,-5.0348,-5.0344,-5.037,-5.0367,-5.0376,-5.0214,-5.0186,-5.0373,-5.0373,-5.0373,-5.0372,-5.0372,-5.0372,-4.9474,-4.9593,-4.9609,-4.9752,-4.979,-4.9891,-4.9932,-4.9986,-5.0034,-5.0155,-5.0227,-5.0255,-5.0308,-5.0398,-5.0477,-5.0488,-5.0521,-5.0551,-5.0559,-5.0407,-5.0387,-5.0368,-5.0342,-5.0558,-5.0558,-5.0714,-5.0716,-5.0717]}]]